Location: Arcadia
(34.1397°N, 118.0353°W)
Time: 23:08:18
(UTC+00:00)

CBERS-1 - Pass Details

Date: 08 September 2024
Orbit: 766 x 774 km, 98.8° (Epoch: 13 October)

Event Time Altitude Azimuth Distance (km) Brightness Sun altitude
Rises 12:34:07 0° 12° (NNE) 3,239 7.6 -12.4°
Reaches altitude 10° 12:36:26 10° 12° (NNE) 2,309 6.8 -11.9°
Maximum altitude 12:41:31 86° 285° (WNW) 773 4.0 -10.9°
Drops below altitude 10° 12:46:36 10° 196° (SSW) 2,298 6.2 -9.9°
Sets 12:48:53 0° 196° (SSW) 3,221 6.9 -9.4°
